Olathe New Century, KS

1:49 PM CDT on May 29, 2017 (GMT -0500)
New Century Aircenter

Weather History for KIXD - November, 2012

Change the Weather History Date:

Monday, November 5, 2012

  Actual Average Record
Temperature  
Mean Temperature 46 °F -  
Max Temperature 52 °F 55 °F 73 °F (1999)
Min Temperature 41 °F 37 °F 26 °F (2010)
Degree Days  
Heating Degree Days 18    
Moisture  
Dew Point 40 °F    
Average Humidity 86    
Maximum Humidity 93    
Minimum Humidity 63    
Precipitation  
Precipitation 0.01 in - - ()
Sea Level Pressure  
Sea Level Pressure 30.06 in    
Wind  
Wind Speed 9 mph (NNW)    
Max Wind Speed 20 mph    
Max Gust Speed 25 mph    
Visibility 6 miles    
Events Rain    
Averages and records for this station are not official NWS values.
T = Trace of Precipitation, MM = Missing Value Source: NWS Daily Summary

Daily Weather History Graph

Daily Weather History Graph

Search for Another Location

Airport or City:

Trip Planner

Search our weather history database for the weather conditions in past years. The results will help you decide how hot, cold, wet, or windy it might be!

Date:

Astronomy

Nov. 05, 2012 Rise Set
Actual Time 6:51 AM CST 5:14 PM CST
Civil Twilight 6:23 AM CST 5:42 PM CST
Nautical Twilight 5:52 AM CST 6:13 PM CST
Astronomical Twilight 5:20 AM CST 6:44 PM CST
Moon 10:52 PM CST (11/5) 12:11 PM CST (11/5)
Length of Visible Light 11h 18m
Length of Day
10h 22m
Waning Gibbous, 62% of the Moon is Illuminated
Nov 5
Waning Gibbous
Nov 6
Last Quarter
Nov 13
New
Nov 20
First Quarter
Nov 28
Full

Hourly Weather History & Observations

Time (CST) Temp. Windchill Dew Point Humidity Pressure Visibility Wind Dir Wind Speed Gust Speed Precip Events Conditions
12:53 AM 51.1 °F - 39.9 °F 66% 30.00 in 10.0 mi Calm Calm - N/A   Overcast
1:53 AM 48.9 °F - 41.0 °F 74% 29.99 in 10.0 mi South 4.6 mph - N/A   Overcast
2:53 AM 50.0 °F - 41.0 °F 71% 29.98 in 10.0 mi SSW 4.6 mph - N/A   Overcast
3:53 AM 52.0 °F - 39.9 °F 63% 29.96 in 10.0 mi WNW 11.5 mph - N/A   Overcast
4:53 AM 48.9 °F - 43.0 °F 80% 29.98 in 10.0 mi NNW 12.7 mph 21.9 mph N/A   Overcast
5:18 AM 48.2 °F - 44.6 °F 87% 29.98 in 7.0 mi NNW 11.5 mph - 0.00 in Rain Light Rain
5:36 AM 46.4 °F 41.1 °F 44.6 °F 93% 29.99 in 9.0 mi NNW 11.5 mph - 0.00 in   Overcast
6:53 AM 46.0 °F 40.6 °F 44.1 °F 93% 30.00 in 3.0 mi NW 11.5 mph - 0.01 in Rain Light Rain
7:53 AM 46.9 °F - 44.1 °F 90% 30.01 in 4.0 mi NW 15.0 mph - 0.00 in   Overcast
8:53 AM 45.0 °F 37.4 °F 43.0 °F 93% 30.03 in 2.5 mi NW 18.4 mph - N/A   Overcast
9:16 AM 44.6 °F 37.8 °F 42.8 °F 93% 30.03 in 1.8 mi NW 15.0 mph - N/A   Overcast
9:53 AM 45.0 °F 38.5 °F 43.0 °F 93% 30.04 in 2.5 mi NW 13.8 mph - N/A   Overcast
10:53 AM 45.0 °F 37.1 °F 42.1 °F 90% 30.06 in 4.0 mi NNW 19.6 mph 25.3 mph N/A   Overcast
11:53 AM 45.0 °F 37.9 °F 42.1 °F 90% 30.06 in 5.0 mi NW 16.1 mph - N/A   Overcast
12:53 PM 44.1 °F 38.1 °F 42.1 °F 93% 30.05 in 4.0 mi NW 11.5 mph - N/A   Overcast
1:53 PM 44.1 °F 37.4 °F 41.0 °F 89% 30.06 in 8.0 mi North 13.8 mph - 0.00 in   Overcast
2:30 PM 44.6 °F 38.1 °F 39.2 °F 81% 30.06 in 7.0 mi North 13.8 mph - N/A   Overcast
2:46 PM 44.6 °F 38.4 °F 39.2 °F 81% 30.05 in 6.0 mi North 12.7 mph - N/A   Overcast
2:53 PM 44.1 °F 37.4 °F 39.9 °F 85% 30.06 in 6.0 mi North 13.8 mph - N/A   Overcast
3:29 PM 42.8 °F 35.1 °F 39.2 °F 87% 30.07 in 6.0 mi North 16.1 mph - N/A   Overcast
3:53 PM 43.0 °F 36.4 °F 39.0 °F 86% 30.08 in 7.0 mi North 12.7 mph - N/A   Overcast
4:53 PM 42.1 °F 34.9 °F 39.0 °F 89% 30.10 in 5.0 mi North 13.8 mph - N/A   Overcast
5:03 PM 42.8 °F 35.4 °F 39.2 °F 87% 30.10 in 6.0 mi North 15.0 mph 20.7 mph N/A   Overcast
5:53 PM 42.1 °F 34.9 °F 39.0 °F 89% 30.12 in 5.0 mi North 13.8 mph - N/A   Overcast
6:53 PM 42.1 °F 35.2 °F 39.0 °F 89% 30.12 in 5.0 mi North 12.7 mph - N/A   Overcast
7:53 PM 42.1 °F 36.6 °F 39.0 °F 89% 30.13 in 5.0 mi North 9.2 mph - N/A   Overcast
8:09 PM 42.8 °F 38.6 °F 39.2 °F 87% 30.11 in 5.0 mi North 6.9 mph - N/A   Overcast
8:53 PM 42.1 °F 37.1 °F 37.9 °F 85% 30.12 in 6.0 mi NNE 8.1 mph - N/A   Overcast
9:53 PM 42.1 °F 37.7 °F 37.9 °F 85% 30.13 in 5.0 mi NNW 6.9 mph - N/A   Overcast
10:07 PM 42.8 °F 38.0 °F 37.4 °F 81% 30.12 in 5.0 mi NNW 8.1 mph - N/A   Overcast
10:45 PM 41.0 °F 38.0 °F 37.4 °F 87% 30.11 in 6.0 mi North 4.6 mph - N/A   Overcast
10:53 PM 41.0 °F 39.0 °F 37.9 °F 89% 30.12 in 5.0 mi North 3.5 mph - N/A   Overcast
11:53 PM 41.0 °F - 37.9 °F 89% 30.11 in 6.0 mi Calm Calm - N/A   Overcast